SM5FGQ-2 Weather Reports


time (UTC)temp
F
wind
direction
speed
knots
gust
knots
rain 1hr
in
rain 24hr
in
rain mn
in
humidity
%
barometer
mb
20260505080132 54 260 7.0 13.9 0.00 0.02 0.02 39 1004.0
20260505073102 59 255 5.2 10.4 0.02 0.02 0.02 37 1003.7
20260505070053 59 262 6.1 11.3 0.02 0.03 0.02 37 1003.5
20260505063042 54 260 5.2 9.6 0.00 0.01 0.00 47 1003.4
20260505060034 48 287 4.3 9.6 0.00 0.01 0.00 61 1003.2
20260505053023 47 254 3.5 7.8 0.00 0.02 0.00 73 1003.0
20260505050115 46 244 2.6 7.0 0.00 0.03 0.00 76 1002.8
20260505040053 45 264 3.5 10.4 0.00 0.09 0.00 76 1002.2
20260505033043 45 233 3.5 7.8 0.00 0.16 0.00 79 1002.1
20260505030033 44 234 3.5 7.0 0.00 0.22 0.00 81 1002.1
20260505023023 45 219 3.5 7.8 0.00 0.30 0.00 79 1001.9
20260505020113 45 208 3.5 10.4 0.00 0.34 0.00 76 1001.8
20260505013103 45 230 2.6 8.7 0.00 0.36 0.00 74 1001.8
20260505010053 45 221 1.7 7.8 0.00 0.36 0.00 73 1001.8
20260505003043 45 211 1.7 4.3 0.00 0.36 0.00 70 1001.8
20260505000036 45 214 1.7 5.2 0.00 0.36 0.00 66 1001.8
20260504233026 45 199 0.9 4.3 0.00 0.36 0.00 59 1001.8
20260504230118 45 180 0.9 5.2 0.00 0.36 0.00 55 1001.9
20260504223107 46 198 1.7 6.1 0.00 0.36 0.00 53 1001.9
20260504220117 45 195 1.7 5.2 0.00 0.36 0.00 57 1001.9
20260504213107 45 202 0.9 3.5 0.00 0.36 0.36 54 1001.9
20260504210037 45 202 0.9 2.6 0.00 0.36 0.36 56 1001.9
20260504203028 47 202 0.9 2.6 0.00 0.36 0.36 54 1001.7
20260504200116 49 202 0.9 2.6 0.00 0.36 0.36 50 1001.7
20260504193106 51 220 0.9 3.5 0.00 0.36 0.36 45 1001.6
20260504190057 54 234 1.7 7.8 0.00 0.36 0.36 41 1001.4
20260504183047 56 246 2.6 6.1 0.00 0.36 0.36 37 1001.5
20260504180038 58 270 4.3 7.8 0.00 0.36 0.36 35 1001.3
20260504173029 59 276 6.1 15.6 0.00 0.36 0.36 35 1001.2
20260504160122 62 271 6.1 15.6 0.00 0.36 0.36 46 1000.2